This is the latest recevied weather packets stored in our database for station/object KB1FFS. If no packets are shown the sender has not sent any weather packets the latest 10 day(s).
| Time | Temp. | Humidity | Pressure | Rain* | Wind** | Luminosity | Snow |
|---|---|---|---|---|---|---|---|
| 1777739756 | 23.89° C | 41% | 1023.8 hPa | 0 mm | - | 801 W/m² | - |
| 1777739453 | 23.89° C | 43% | 1023.8 hPa | 0 mm | - | 793 W/m² | - |
| 1777739150 | 23.89° C | 40% | 1023.6 hPa | 0 mm | - | 781 W/m² | - |
| 1777738847 | 23.89° C | 43% | 1023.7 hPa | 0 mm | - | 769 W/m² | - |
| 1777738544 | 23.33° C | 41% | 1023.6 hPa | 0 mm | - | 758 W/m² | - |
| 1777738242 | 23.33° C | 41% | 1023.7 hPa | 0 mm | - | 742 W/m² | - |
| 1777737940 | 23.33° C | 41% | 1023.7 hPa | 0 mm | - | 726 W/m² | - |
| 1777737638 | 22.78° C | 40% | 1023.6 hPa | 0 mm | - | 702 W/m² | - |
| 1777737336 | 22.78° C | 42% | 1023.8 hPa | 0 mm | - | 662 W/m² | - |
| 1777737033 | 22.78° C | 44% | 1023.6 hPa | 0 mm | - | 291 W/m² | - |
| 1777736729 | 22.78° C | 41% | 1023.6 hPa | 0 mm | - | 74 W/m² | - |
| 1777736100 | 22.78° C | 41% | 1023.4 hPa | 0 mm | - | 63 W/m² | - |
| 1777735797 | 22.78° C | 42% | 1023.6 hPa | 0 mm | - | 61 W/m² | - |
| 1777735495 | 22.22° C | 43% | 1023.4 hPa | 0 mm | - | 59 W/m² | - |
| 1777735193 | 22.22° C | 46% | 1023.4 hPa | 0 mm | - | 58 W/m² | - |
| 1777734889 | 21.67° C | 47% | 1023.5 hPa | 0 mm | - | 57 W/m² | - |
| 1777734587 | 21.11° C | 49% | 1023.3 hPa | 0 mm | - | 56 W/m² | - |
| 1777734284 | 21.11° C | 50% | 1023.3 hPa | 0 mm | - | 55 W/m² | - |
| 1777733979 | 20.56° C | 53% | 1023.5 hPa | 0 mm | - | 55 W/m² | - |
| 1777733677 | 20.56° C | 52% | 1023.6 hPa | 0 mm | - | 54 W/m² | - |
| 1777733373 | 20.56° C | 55% | 1023.4 hPa | 0 mm | - | 54 W/m² | - |
| 1777733070 | 20.56° C | 56% | 1023.4 hPa | 0 mm | - | 53 W/m² | - |
| 1777732766 | 20° C | 57% | 1023.4 hPa | 0 mm | - | 53 W/m² | - |
| 1777732463 | 20° C | 59% | 1023.4 hPa | 0 mm | - | 54 W/m² | - |
| 1777732160 | 19.44° C | 63% | 1023.4 hPa | 0 mm | - | 54 W/m² | - |
* Rain latest hour (hover to see other rain measurements)
** Current wind speed in m/s (hover to see current wind gust speed)